locationName,lineName,date,time,countIn,countOut
�����w�O,�w����,2022/7/1,0:00,2,2
�����w�O,�w����,2022/7/1,1:00,0,0
�����w�O,�w����,2022/7/1,2:00,0,0
�����w�O,�w����,2022/7/1,3:00,0,0
�����w�O,�w����,2022/7/1,4:00,0,0
�����w�O,�w����,2022/7/1,5:00,6,7
�����w�O,�w����,2022/7/1,6:00,88,51
�����w�O,�w����,2022/7/1,7:00,212,203
�����w�O,�w����,2022/7/1,8:00,107,154
�����w�O,�w����,2022/7/1,9:00,113,143
�����w�O,�w����,2022/7/1,10:00,70,100
�����w�O,�w����,2022/7/1,11:00,78,107
�����w�O,�w����,2022/7/1,12:00,127,133
�����w�O,�w����,2022/7/1,13:00,179,156
�����w�O,�w����,2022/7/1,14:00,122,144
�����w�O,�w����,2022/7/1,15:00,151,113
�����w�O,�w����,2022/7/1,16:00,240,145
�����w�O,�w����,2022/7/1,17:00,234,150
�����w�O,�w����,2022/7/1,18:00,176,118
�����w�O,�w����,2022/7/1,19:00,112,134
�����w�O,�w����,2022/7/1,20:00,60,52
�����w�O,�w����,2022/7/1,21:00,60,78
�����w�O,�w����,2022/7/1,22:00,44,46
�����w�O,�w����,2022/7/1,23:00,14,26
�����w�O,�w����,2022/7/2,0:00,4,2
�����w�O,�w����,2022/7/2,1:00,0,0
�����w�O,�w����,2022/7/2,2:00,0,0
�����w�O,�w����,2022/7/2,3:00,1,0
�����w�O,�w����,2022/7/2,4:00,6,0
�����w�O,�w����,2022/7/2,5:00,10,9
�����w�O,�w����,2022/7/2,6:00,35,24
�����w�O,�w����,2022/7/2,7:00,108,132
�����w�O,�w����,2022/7/2,8:00,88,135
�����w�O,�w����,2022/7/2,9:00,89,141
�����w�O,�w����,2022/7/2,10:00,121,158
�����w�O,�w����,2022/7/2,11:00,128,166
�����w�O,�w����,2022/7/2,12:00,114,178
�����w�O,�w����,2022/7/2,13:00,213,163
�����w�O,�w����,2022/7/2,14:00,185,162
�����w�O,�w����,2022/7/2,15:00,191,124
�����w�O,�w����,2022/7/2,16:00,140,101
�����w�O,�w����,2022/7/2,17:00,185,128
�����w�O,�w����,2022/7/2,18:00,185,153
�����w�O,�w����,2022/7/2,19:00,91,101
�����w�O,�w����,2022/7/2,20:00,70,86
�����w�O,�w����,2022/7/2,21:00,71,80
�����w�O,�w����,2022/7/2,22:00,37,52
�����w�O,�w����,2022/7/2,23:00,28,27
�����w�O,�w����,2022/7/3,0:00,2,2
�����w�O,�w����,2022/7/3,1:00,0,0
�����w�O,�w����,2022/7/3,2:00,0,0
�����w�O,�w����,2022/7/3,3:00,1,1
�����w�O,�w����,2022/7/3,4:00,4,0
�����w�O,�w����,2022/7/3,5:00,13,7
�����w�O,�w����,2022/7/3,6:00,34,35
�����w�O,�w����,2022/7/3,7:00,82,65
�����w�O,�w����,2022/7/3,8:00,111,118
�����w�O,�w����,2022/7/3,9:00,117,138
�����w�O,�w����,2022/7/3,10:00,142,170
�����w�O,�w����,2022/7/3,11:00,151,184
�����w�O,�w����,2022/7/3,12:00,212,186
�����w�O,�w����,2022/7/3,13:00,230,187
�����w�O,�w����,2022/7/3,14:00,180,148
�����w�O,�w����,2022/7/3,15:00,195,151
�����w�O,�w����,2022/7/3,16:00,165,137
�����w�O,�w����,2022/7/3,17:00,164,93
�����w�O,�w����,2022/7/3,18:00,114,112
�����w�O,�w����,2022/7/3,19:00,62,88
�����w�O,�w����,2022/7/3,20:00,45,52
�����w�O,�w����,2022/7/3,21:00,135,330
�����w�O,�w����,2022/7/3,22:00,284,381
�����w�O,�w����,2022/7/3,23:00,3,4
�����w�O,�w����,2022/7/4,0:00,0,8
�����w�O,�w����,2022/7/4,1:00,0,0
�����w�O,�w����,2022/7/4,2:00,0,0
�����w�O,�w����,2022/7/4,3:00,0,1
�����w�O,�w����,2022/7/4,4:00,3,1
�����w�O,�w����,2022/7/4,5:00,5,5
�����w�O,�w����,2022/7/4,6:00,108,68
�����w�O,�w����,2022/7/4,7:00,234,239
�����w�O,�w����,2022/7/4,8:00,126,178
�����w�O,�w����,2022/7/4,9:00,88,86
�����w�O,�w����,2022/7/4,10:00,82,85
�����w�O,�w����,2022/7/4,11:00,119,100
�����w�O,�w����,2022/7/4,12:00,133,95
�����w�O,�w����,2022/7/4,13:00,116,108
�����w�O,�w����,2022/7/4,14:00,127,131
�����w�O,�w����,2022/7/4,15:00,113,89
�����w�O,�w����,2022/7/4,16:00,221,135
�����w�O,�w����,2022/7/4,17:00,258,133
�����w�O,�w����,2022/7/4,18:00,233,130
�����w�O,�w����,2022/7/4,19:00,112,136
�����w�O,�w����,2022/7/4,20:00,55,52
�����w�O,�w����,2022/7/4,21:00,43,62
�����w�O,�w����,2022/7/4,22:00,129,441
�����w�O,�w����,2022/7/4,23:00,48,306
�����w�O,�w����,2022/7/5,0:00,11,23
�����w�O,�w����,2022/7/5,1:00,2,9
�����w�O,�w����,2022/7/5,2:00,0,0
�����w�O,�w����,2022/7/5,3:00,2,2
�����w�O,�w����,2022/7/5,4:00,2,0
�����w�O,�w����,2022/7/5,5:00,4,2
�����w�O,�w����,2022/7/5,6:00,101,50
�����w�O,�w����,2022/7/5,7:00,216,232
�����w�O,�w����,2022/7/5,8:00,119,157
�����w�O,�w����,2022/7/5,9:00,91,103
�����w�O,�w����,2022/7/5,10:00,77,91
�����w�O,�w����,2022/7/5,11:00,188,123
�����w�O,�w����,2022/7/5,12:00,151,154
�����w�O,�w����,2022/7/5,13:00,93,104
�����w�O,�w����,2022/7/5,14:00,88,116
�����w�O,�w����,2022/7/5,15:00,126,91
�����w�O,�w����,2022/7/5,16:00,147,116
�����w�O,�w����,2022/7/5,17:00,254,129
�����w�O,�w����,2022/7/5,18:00,171,117
�����w�O,�w����,2022/7/5,19:00,123,101
�����w�O,�w����,2022/7/5,20:00,59,72
�����w�O,�w����,2022/7/5,21:00,63,94
�����w�O,�w����,2022/7/5,22:00,88,265
�����w�O,�w����,2022/7/5,23:00,6,12
�����w�O,�w����,2022/7/6,0:00,1,5
�����w�O,�w����,2022/7/6,1:00,1,0
�����w�O,�w����,2022/7/6,2:00,0,0
�����w�O,�w����,2022/7/6,3:00,1,1
�����w�O,�w����,2022/7/6,4:00,1,0
�����w�O,�w����,2022/7/6,5:00,5,2
�����w�O,�w����,2022/7/6,6:00,92,46
�����w�O,�w����,2022/7/6,7:00,197,173
�����w�O,�w����,2022/7/6,8:00,127,174
�����w�O,�w����,2022/7/6,9:00,80,92
�����w�O,�w����,2022/7/6,10:00,125,99
�����w�O,�w����,2022/7/6,11:00,144,118
�����w�O,�w����,2022/7/6,12:00,139,109
�����w�O,�w����,2022/7/6,13:00,112,92
�����w�O,�w����,2022/7/6,14:00,124,124
�����w�O,�w����,2022/7/6,15:00,134,122
�����w�O,�w����,2022/7/6,16:00,218,200
�����w�O,�w����,2022/7/6,17:00,330,152
�����w�O,�w����,2022/7/6,18:00,178,139
�����w�O,�w����,2022/7/6,19:00,74,117
�����w�O,�w����,2022/7/6,20:00,39,62
�����w�O,�w����,2022/7/6,21:00,52,47
�����w�O,�w����,2022/7/6,22:00,28,28
�����w�O,�w����,2022/7/6,23:00,8,10
�����w�O,�w����,2022/7/7,0:00,2,2
�����w�O,�w����,2022/7/7,1:00,1,2
�����w�O,�w����,2022/7/7,2:00,0,1
�����w�O,�w����,2022/7/7,3:00,0,1
�����w�O,�w����,2022/7/7,4:00,3,1
�����w�O,�w����,2022/7/7,5:00,5,6
�����w�O,�w����,2022/7/7,6:00,94,70
�����w�O,�w����,2022/7/7,7:00,219,213
�����w�O,�w����,2022/7/7,8:00,73,55
�����w�O,�w����,2022/7/7,9:00,106,119
�����w�O,�w����,2022/7/7,10:00,97,102
�����w�O,�w����,2022/7/7,11:00,142,117
�����w�O,�w����,2022/7/7,12:00,155,107
�����w�O,�w����,2022/7/7,13:00,105,99
�����w�O,�w����,2022/7/7,14:00,103,93
�����w�O,�w����,2022/7/7,15:00,130,108
�����w�O,�w����,2022/7/7,16:00,129,112
�����w�O,�w����,2022/7/7,17:00,195,123
�����w�O,�w����,2022/7/7,18:00,187,149
�����w�O,�w����,2022/7/7,19:00,123,147
�����w�O,�w����,2022/7/7,20:00,44,55
�����w�O,�w����,2022/7/7,21:00,40,62
�����w�O,�w����,2022/7/7,22:00,30,28
�����w�O,�w����,2022/7/7,23:00,5,9
�����w�O,�w����,2022/7/8,0:00,1,1
�����w�O,�w����,2022/7/8,1:00,2,1
�����w�O,�w����,2022/7/8,2:00,1,3
�����w�O,�w����,2022/7/8,3:00,0,2
�����w�O,�w����,2022/7/8,4:00,0,0
�����w�O,�w����,2022/7/8,5:00,10,7
�����w�O,�w����,2022/7/8,6:00,102,57
�����w�O,�w����,2022/7/8,7:00,231,226
�����w�O,�w����,2022/7/8,8:00,138,165
�����w�O,�w����,2022/7/8,9:00,122,137
�����w�O,�w����,2022/7/8,10:00,111,109
�����w�O,�w����,2022/7/8,11:00,129,130
�����w�O,�w����,2022/7/8,12:00,209,157
�����w�O,�w����,2022/7/8,13:00,133,131
�����w�O,�w����,2022/7/8,14:00,162,166
�����w�O,�w����,2022/7/8,15:00,185,158
�����w�O,�w����,2022/7/8,16:00,239,147
�����w�O,�w����,2022/7/8,17:00,346,206
�����w�O,�w����,2022/7/8,18:00,261,139
�����w�O,�w����,2022/7/8,19:00,119,141
�����w�O,�w����,2022/7/8,20:00,62,81
�����w�O,�w����,2022/7/8,21:00,188,448
�����w�O,�w����,2022/7/8,22:00,49,57
�����w�O,�w����,2022/7/8,23:00,32,35
�����w�O,�w����,2022/7/9,0:00,7,11
�����w�O,�w����,2022/7/9,1:00,0,2
�����w�O,�w����,2022/7/9,2:00,0,2
�����w�O,�w����,2022/7/9,3:00,1,4
�����w�O,�w����,2022/7/9,4:00,1,1
�����w�O,�w����,2022/7/9,5:00,9,10
�����w�O,�w����,2022/7/9,6:00,45,41
�����w�O,�w����,2022/7/9,7:00,114,77
�����w�O,�w����,2022/7/9,8:00,134,171
�����w�O,�w����,2022/7/9,9:00,135,181
�����w�O,�w����,2022/7/9,10:00,117,142
�����w�O,�w����,2022/7/9,11:00,174,227
�����w�O,�w����,2022/7/9,12:00,211,215
�����w�O,�w����,2022/7/9,13:00,294,249
�����w�O,�w����,2022/7/9,14:00,265,254
�����w�O,�w����,2022/7/9,15:00,198,154
�����w�O,�w����,2022/7/9,16:00,213,152
�����w�O,�w����,2022/7/9,17:00,226,207
�����w�O,�w����,2022/7/9,18:00,131,122
�����w�O,�w����,2022/7/9,19:00,130,141
�����w�O,�w����,2022/7/9,20:00,84,82
�����w�O,�w����,2022/7/9,21:00,85,110
�����w�O,�w����,2022/7/9,22:00,40,52
�����w�O,�w����,2022/7/9,23:00,30,26
�����w�O,�w����,2022/7/10,0:00,0,0
�����w�O,�w����,2022/7/10,1:00,0,0
�����w�O,�w����,2022/7/10,2:00,0,0
�����w�O,�w����,2022/7/10,3:00,2,1
�����w�O,�w����,2022/7/10,4:00,1,0
�����w�O,�w����,2022/7/10,5:00,12,5
�����w�O,�w����,2022/7/10,6:00,35,17
�����w�O,�w����,2022/7/10,7:00,68,63
�����w�O,�w����,2022/7/10,8:00,101,118
�����w�O,�w����,2022/7/10,9:00,137,135
�����w�O,�w����,2022/7/10,10:00,141,166
�����w�O,�w����,2022/7/10,11:00,146,184
�����w�O,�w����,2022/7/10,12:00,188,229
�����w�O,�w����,2022/7/10,13:00,234,181
�����w�O,�w����,2022/7/10,14:00,243,211
�����w�O,�w����,2022/7/10,15:00,265,218
�����w�O,�w����,2022/7/10,16:00,187,164
�����w�O,�w����,2022/7/10,17:00,180,147
�����w�O,�w����,2022/7/10,18:00,97,119
�����w�O,�w����,2022/7/10,19:00,83,85
�����w�O,�w����,2022/7/10,20:00,49,74
�����w�O,�w����,2022/7/10,21:00,38,68
�����w�O,�w����,2022/7/10,22:00,14,22
�����w�O,�w����,2022/7/10,23:00,9,17
�����w�O,�w����,2022/7/11,0:00,2,0
�����w�O,�w����,2022/7/11,1:00,0,0
�����w�O,�w����,2022/7/11,2:00,0,0
�����w�O,�w����,2022/7/11,3:00,0,1
�����w�O,�w����,2022/7/11,4:00,1,0
�����w�O,�w����,2022/7/11,5:00,9,8
�����w�O,�w����,2022/7/11,6:00,100,49
�����w�O,�w����,2022/7/11,7:00,233,209
�����w�O,�w����,2022/7/11,8:00,140,215
�����w�O,�w����,2022/7/11,9:00,127,124
�����w�O,�w����,2022/7/11,10:00,127,130
�����w�O,�w����,2022/7/11,11:00,117,133
�����w�O,�w����,2022/7/11,12:00,132,146
�����w�O,�w����,2022/7/11,13:00,132,119
�����w�O,�w����,2022/7/11,14:00,180,154
�����w�O,�w����,2022/7/11,15:00,173,131
�����w�O,�w����,2022/7/11,16:00,212,165
�����w�O,�w����,2022/7/11,17:00,245,136
�����w�O,�w����,2022/7/11,18:00,247,150
�����w�O,�w����,2022/7/11,19:00,109,119
�����w�O,�w����,2022/7/11,20:00,65,64
�����w�O,�w����,2022/7/11,21:00,37,50
�����w�O,�w����,2022/7/11,22:00,24,28
�����w�O,�w����,2022/7/11,23:00,16,12
�����w�O,�w����,2022/7/12,0:00,1,0
�����w�O,�w����,2022/7/12,1:00,0,0
�����w�O,�w����,2022/7/12,2:00,0,0
�����w�O,�w����,2022/7/12,3:00,1,0
�����w�O,�w����,2022/7/12,4:00,2,0
�����w�O,�w����,2022/7/12,5:00,7,5
�����w�O,�w����,2022/7/12,6:00,112,59
�����w�O,�w����,2022/7/12,7:00,245,232
�����w�O,�w����,2022/7/12,8:00,128,186
�����w�O,�w����,2022/7/12,9:00,83,102
�����w�O,�w����,2022/7/12,10:00,94,138
�����w�O,�w����,2022/7/12,11:00,110,136
�����w�O,�w����,2022/7/12,12:00,148,145
�����w�O,�w����,2022/7/12,13:00,132,132
�����w�O,�w����,2022/7/12,14:00,141,150
�����w�O,�w����,2022/7/12,15:00,198,134
�����w�O,�w����,2022/7/12,16:00,183,160
�����w�O,�w����,2022/7/12,17:00,270,150
�����w�O,�w����,2022/7/12,18:00,212,117
�����w�O,�w����,2022/7/12,19:00,180,155
�����w�O,�w����,2022/7/12,20:00,85,84
�����w�O,�w����,2022/7/12,21:00,40,53
�����w�O,�w����,2022/7/12,22:00,24,31
�����w�O,�w����,2022/7/12,23:00,8,10
�����w�O,�w����,2022/7/13,0:00,1,1
�����w�O,�w����,2022/7/13,1:00,0,0
�����w�O,�w����,2022/7/13,2:00,0,0
�����w�O,�w����,2022/7/13,3:00,0,0
�����w�O,�w����,2022/7/13,4:00,2,1
�����w�O,�w����,2022/7/13,5:00,9,11
�����w�O,�w����,2022/7/13,6:00,109,60
�����w�O,�w����,2022/7/13,7:00,203,203
�����w�O,�w����,2022/7/13,8:00,121,203
�����w�O,�w����,2022/7/13,9:00,86,99
�����w�O,�w����,2022/7/13,10:00,98,126
�����w�O,�w����,2022/7/13,11:00,136,128
�����w�O,�w����,2022/7/13,12:00,116,146
�����w�O,�w����,2022/7/13,13:00,146,132
�����w�O,�w����,2022/7/13,14:00,123,136
�����w�O,�w����,2022/7/13,15:00,127,112
�����w�O,�w����,2022/7/13,16:00,188,113
�����w�O,�w����,2022/7/13,17:00,284,139
�����w�O,�w����,2022/7/13,18:00,178,159
�����w�O,�w����,2022/7/13,19:00,124,134
�����w�O,�w����,2022/7/13,20:00,72,45
�����w�O,�w����,2022/7/13,21:00,61,60
�����w�O,�w����,2022/7/13,22:00,34,32
�����w�O,�w����,2022/7/13,23:00,10,10
�����w�O,�w����,2022/7/14,0:00,0,1
�����w�O,�w����,2022/7/14,1:00,1,1
�����w�O,�w����,2022/7/14,2:00,0,0
�����w�O,�w����,2022/7/14,3:00,2,2
�����w�O,�w����,2022/7/14,4:00,2,0
�����w�O,�w����,2022/7/14,5:00,10,9
�����w�O,�w����,2022/7/14,6:00,96,46
�����w�O,�w����,2022/7/14,7:00,219,201
�����w�O,�w����,2022/7/14,8:00,132,175
�����w�O,�w����,2022/7/14,9:00,79,144
�����w�O,�w����,2022/7/14,10:00,98,111
�����w�O,�w����,2022/7/14,11:00,109,119
�����w�O,�w����,2022/7/14,12:00,142,133
�����w�O,�w����,2022/7/14,13:00,103,119
�����w�O,�w����,2022/7/14,14:00,106,115
�����w�O,�w����,2022/7/14,15:00,176,138
�����w�O,�w����,2022/7/14,16:00,223,145
�����w�O,�w����,2022/7/14,17:00,264,189
�����w�O,�w����,2022/7/14,18:00,256,150
�����w�O,�w����,2022/7/14,19:00,125,135
�����w�O,�w����,2022/7/14,20:00,57,62
�����w�O,�w����,2022/7/14,21:00,54,66
�����w�O,�w����,2022/7/14,22:00,47,91
�����w�O,�w����,2022/7/14,23:00,90,176
�����w�O,�w����,2022/7/15,0:00,169,167
�����w�O,�w����,2022/7/15,1:00,13,8
�����w�O,�w����,2022/7/15,2:00,2,3
�����w�O,�w����,2022/7/15,3:00,1,1
�����w�O,�w����,2022/7/15,4:00,3,1
�����w�O,�w����,2022/7/15,5:00,4,6
�����w�O,�w����,2022/7/15,6:00,99,61
�����w�O,�w����,2022/7/15,7:00,214,216
�����w�O,�w����,2022/7/15,8:00,126,208
�����w�O,�w����,2022/7/15,9:00,98,129
�����w�O,�w����,2022/7/15,10:00,107,124
�����w�O,�w����,2022/7/15,11:00,109,107
�����w�O,�w����,2022/7/15,12:00,140,143
�����w�O,�w����,2022/7/15,13:00,125,135
�����w�O,�w����,2022/7/15,14:00,140,145
�����w�O,�w����,2022/7/15,15:00,188,139
�����w�O,�w����,2022/7/15,16:00,257,142
�����w�O,�w����,2022/7/15,17:00,293,160
�����w�O,�w����,2022/7/15,18:00,289,192
�����w�O,�w����,2022/7/15,19:00,139,173
�����w�O,�w����,2022/7/15,20:00,90,91
�����w�O,�w����,2022/7/15,21:00,75,55
�����w�O,�w����,2022/7/15,22:00,43,59
�����w�O,�w����,2022/7/15,23:00,42,39
�����w�O,�w����,2022/7/16,0:00,2,1
�����w�O,�w����,2022/7/16,1:00,2,0
�����w�O,�w����,2022/7/16,2:00,0,0
�����w�O,�w����,2022/7/16,3:00,0,1
�����w�O,�w����,2022/7/16,4:00,2,0
�����w�O,�w����,2022/7/16,5:00,14,8
�����w�O,�w����,2022/7/16,6:00,55,46
�����w�O,�w����,2022/7/16,7:00,111,139
�����w�O,�w����,2022/7/16,8:00,98,156
�����w�O,�w����,2022/7/16,9:00,146,174
�����w�O,�w����,2022/7/16,10:00,157,254
�����w�O,�w����,2022/7/16,11:00,162,262
�����w�O,�w����,2022/7/16,12:00,216,269
�����w�O,�w����,2022/7/16,13:00,248,216
�����w�O,�w����,2022/7/16,14:00,288,311
�����w�O,�w����,2022/7/16,15:00,298,221
�����w�O,�w����,2022/7/16,16:00,247,183
�����w�O,�w����,2022/7/16,17:00,264,229
�����w�O,�w����,2022/7/16,18:00,225,167
�����w�O,�w����,2022/7/16,19:00,139,177
�����w�O,�w����,2022/7/16,20:00,125,108
�����w�O,�w����,2022/7/16,21:00,75,96
�����w�O,�w����,2022/7/16,22:00,52,71
�����w�O,�w����,2022/7/16,23:00,18,21
�����w�O,�w����,2022/7/17,0:00,6,5
�����w�O,�w����,2022/7/17,1:00,0,0
�����w�O,�w����,2022/7/17,2:00,0,0
�����w�O,�w����,2022/7/17,3:00,0,1
�����w�O,�w����,2022/7/17,4:00,4,3
�����w�O,�w����,2022/7/17,5:00,15,5
�����w�O,�w����,2022/7/17,6:00,46,34
�����w�O,�w����,2022/7/17,7:00,83,95
�����w�O,�w����,2022/7/17,8:00,136,156
�����w�O,�w����,2022/7/17,9:00,143,203
�����w�O,�w����,2022/7/17,10:00,183,258
�����w�O,�w����,2022/7/17,11:00,196,256
�����w�O,�w����,2022/7/17,12:00,217,334
�����w�O,�w����,2022/7/17,13:00,255,265
�����w�O,�w����,2022/7/17,14:00,356,318
�����w�O,�w����,2022/7/17,15:00,348,250
�����w�O,�w����,2022/7/17,16:00,366,243
�����w�O,�w����,2022/7/17,17:00,342,255
�����w�O,�w����,2022/7/17,18:00,252,164
�����w�O,�w����,2022/7/17,19:00,191,177
�����w�O,�w����,2022/7/17,20:00,120,85
�����w�O,�w����,2022/7/17,21:00,59,63
�����w�O,�w����,2022/7/17,22:00,36,44
�����w�O,�w����,2022/7/17,23:00,16,16
�����w�O,�w����,2022/7/18,0:00,0,1
�����w�O,�w����,2022/7/18,1:00,0,0
�����w�O,�w����,2022/7/18,2:00,0,0
�����w�O,�w����,2022/7/18,3:00,0,1
�����w�O,�w����,2022/7/18,4:00,5,2
�����w�O,�w����,2022/7/18,5:00,17,7
�����w�O,�w����,2022/7/18,6:00,45,34
�����w�O,�w����,2022/7/18,7:00,67,76
�����w�O,�w����,2022/7/18,8:00,103,145
�����w�O,�w����,2022/7/18,9:00,140,176
�����w�O,�w����,2022/7/18,10:00,240,249
�����w�O,�w����,2022/7/18,11:00,195,259
�����w�O,�w����,2022/7/18,12:00,239,257
�����w�O,�w����,2022/7/18,13:00,218,193
�����w�O,�w����,2022/7/18,14:00,305,229
�����w�O,�w����,2022/7/18,15:00,311,186
�����w�O,�w����,2022/7/18,16:00,272,173
�����w�O,�w����,2022/7/18,17:00,242,163
�����w�O,�w����,2022/7/18,18:00,162,146
�����w�O,�w����,2022/7/18,19:00,100,132
�����w�O,�w����,2022/7/18,20:00,47,49
�����w�O,�w����,2022/7/18,21:00,45,67
�����w�O,�w����,2022/7/18,22:00,12,21
�����w�O,�w����,2022/7/18,23:00,5,3
�����w�O,�w����,2022/7/19,0:00,1,6
�����w�O,�w����,2022/7/19,1:00,0,0
�����w�O,�w����,2022/7/19,2:00,0,0
�����w�O,�w����,2022/7/19,3:00,0,1
�����w�O,�w����,2022/7/19,4:00,0,0
�����w�O,�w����,2022/7/19,5:00,8,7
�����w�O,�w����,2022/7/19,6:00,84,56
�����w�O,�w����,2022/7/19,7:00,211,204
�����w�O,�w����,2022/7/19,8:00,101,197
�����w�O,�w����,2022/7/19,9:00,91,113
�����w�O,�w����,2022/7/19,10:00,96,92
�����w�O,�w����,2022/7/19,11:00,109,89
�����w�O,�w����,2022/7/19,12:00,111,125
�����w�O,�w����,2022/7/19,13:00,94,98
�����w�O,�w����,2022/7/19,14:00,88,85
�����w�O,�w����,2022/7/19,15:00,124,81
�����w�O,�w����,2022/7/19,16:00,186,118
�����w�O,�w����,2022/7/19,17:00,275,174
�����w�O,�w����,2022/7/19,18:00,228,117
�����w�O,�w����,2022/7/19,19:00,125,101
�����w�O,�w����,2022/7/19,20:00,54,56
�����w�O,�w����,2022/7/19,21:00,45,47
�����w�O,�w����,2022/7/19,22:00,18,30
�����w�O,�w����,2022/7/19,23:00,10,10
�����w�O,�w����,2022/7/20,0:00,3,5
�����w�O,�w����,2022/7/20,1:00,1,0
�����w�O,�w����,2022/7/20,2:00,0,0
�����w�O,�w����,2022/7/20,3:00,0,1
�����w�O,�w����,2022/7/20,4:00,1,1
�����w�O,�w����,2022/7/20,5:00,3,1
�����w�O,�w����,2022/7/20,6:00,94,62
�����w�O,�w����,2022/7/20,7:00,206,182
�����w�O,�w����,2022/7/20,8:00,104,199
�����w�O,�w����,2022/7/20,9:00,101,91
�����w�O,�w����,2022/7/20,10:00,94,103
�����w�O,�w����,2022/7/20,11:00,120,115
�����w�O,�w����,2022/7/20,12:00,177,141
�����w�O,�w����,2022/7/20,13:00,200,165
�����w�O,�w����,2022/7/20,14:00,132,133
�����w�O,�w����,2022/7/20,15:00,169,127
�����w�O,�w����,2022/7/20,16:00,172,112
�����w�O,�w����,2022/7/20,17:00,239,137
�����w�O,�w����,2022/7/20,18:00,228,126
�����w�O,�w����,2022/7/20,19:00,115,119
�����w�O,�w����,2022/7/20,20:00,54,47
�����w�O,�w����,2022/7/20,21:00,56,63
�����w�O,�w����,2022/7/20,22:00,21,25
�����w�O,�w����,2022/7/20,23:00,8,8
�����w�O,�w����,2022/7/21,0:00,2,4
�����w�O,�w����,2022/7/21,1:00,0,0
�����w�O,�w����,2022/7/21,2:00,0,0
�����w�O,�w����,2022/7/21,3:00,1,0
�����w�O,�w����,2022/7/21,4:00,2,1
�����w�O,�w����,2022/7/21,5:00,6,3
�����w�O,�w����,2022/7/21,6:00,77,41
�����w�O,�w����,2022/7/21,7:00,179,161
�����w�O,�w����,2022/7/21,8:00,119,173
�����w�O,�w����,2022/7/21,9:00,102,112
�����w�O,�w����,2022/7/21,10:00,74,67
�����w�O,�w����,2022/7/21,11:00,115,138
�����w�O,�w����,2022/7/21,12:00,107,107
�����w�O,�w����,2022/7/21,13:00,91,109
�����w�O,�w����,2022/7/21,14:00,117,110
�����w�O,�w����,2022/7/21,15:00,221,153
�����w�O,�w����,2022/7/21,16:00,125,97
�����w�O,�w����,2022/7/21,17:00,197,127
�����w�O,�w����,2022/7/21,18:00,226,165
�����w�O,�w����,2022/7/21,19:00,143,124
�����w�O,�w����,2022/7/21,20:00,89,79
�����w�O,�w����,2022/7/21,21:00,40,45
�����w�O,�w����,2022/7/21,22:00,24,28
�����w�O,�w����,2022/7/21,23:00,10,5
�����w�O,�w����,2022/7/22,0:00,2,0
�����w�O,�w����,2022/7/22,1:00,0,0
�����w�O,�w����,2022/7/22,2:00,0,0
�����w�O,�w����,2022/7/22,3:00,0,1
�����w�O,�w����,2022/7/22,4:00,3,1
�����w�O,�w����,2022/7/22,5:00,14,11
�����w�O,�w����,2022/7/22,6:00,89,46
�����w�O,�w����,2022/7/22,7:00,158,129
�����w�O,�w����,2022/7/22,8:00,110,71
�����w�O,�w����,2022/7/22,9:00,117,238
�����w�O,�w����,2022/7/22,10:00,98,145
�����w�O,�w����,2022/7/22,11:00,106,126
�����w�O,�w����,2022/7/22,12:00,165,172
�����w�O,�w����,2022/7/22,13:00,166,145
�����w�O,�w����,2022/7/22,14:00,178,194
�����w�O,�w����,2022/7/22,15:00,157,110
�����w�O,�w����,2022/7/22,16:00,189,130
�����w�O,�w����,2022/7/22,17:00,289,150
�����w�O,�w����,2022/7/22,18:00,191,153
�����w�O,�w����,2022/7/22,19:00,106,116
�����w�O,�w����,2022/7/22,20:00,74,89
�����w�O,�w����,2022/7/22,21:00,83,68
�����w�O,�w����,2022/7/22,22:00,35,30
�����w�O,�w����,2022/7/22,23:00,18,10
�����w�O,�w����,2022/7/23,0:00,2,1
�����w�O,�w����,2022/7/23,1:00,0,0
�����w�O,�w����,2022/7/23,2:00,0,1
�����w�O,�w����,2022/7/23,3:00,0,1
�����w�O,�w����,2022/7/23,4:00,4,1
�����w�O,�w����,2022/7/23,5:00,16,7
�����w�O,�w����,2022/7/23,6:00,42,36
�����w�O,�w����,2022/7/23,7:00,93,91
�����w�O,�w����,2022/7/23,8:00,100,156
�����w�O,�w����,2022/7/23,9:00,91,133
�����w�O,�w����,2022/7/23,10:00,129,201
�����w�O,�w����,2022/7/23,11:00,147,221
�����w�O,�w����,2022/7/23,12:00,196,246
�����w�O,�w����,2022/7/23,13:00,193,154
�����w�O,�w����,2022/7/23,14:00,212,166
�����w�O,�w����,2022/7/23,15:00,276,209
�����w�O,�w����,2022/7/23,16:00,228,168
�����w�O,�w����,2022/7/23,17:00,221,169
�����w�O,�w����,2022/7/23,18:00,228,147
�����w�O,�w����,2022/7/23,19:00,118,160
�����w�O,�w����,2022/7/23,20:00,100,86
�����w�O,�w����,2022/7/23,21:00,85,102
�����w�O,�w����,2022/7/23,22:00,52,47
�����w�O,�w����,2022/7/23,23:00,35,27
�����w�O,�w����,2022/7/24,0:00,0,0
�����w�O,�w����,2022/7/24,1:00,0,0
�����w�O,�w����,2022/7/24,2:00,0,0
�����w�O,�w����,2022/7/24,3:00,0,1
�����w�O,�w����,2022/7/24,4:00,4,0
�����w�O,�w����,2022/7/24,5:00,8,4
�����w�O,�w����,2022/7/24,6:00,28,28
�����w�O,�w����,2022/7/24,7:00,87,57
�����w�O,�w����,2022/7/24,8:00,120,140
�����w�O,�w����,2022/7/24,9:00,143,147
�����w�O,�w����,2022/7/24,10:00,138,201
�����w�O,�w����,2022/7/24,11:00,138,207
�����w�O,�w����,2022/7/24,12:00,175,177
�����w�O,�w����,2022/7/24,13:00,220,165
�����w�O,�w����,2022/7/24,14:00,241,188
�����w�O,�w����,2022/7/24,15:00,233,170
�����w�O,�w����,2022/7/24,16:00,219,139
�����w�O,�w����,2022/7/24,17:00,179,179
�����w�O,�w����,2022/7/24,18:00,129,98
�����w�O,�w����,2022/7/24,19:00,86,131
�����w�O,�w����,2022/7/24,20:00,62,62
�����w�O,�w����,2022/7/24,21:00,40,47
�����w�O,�w����,2022/7/24,22:00,13,33
�����w�O,�w����,2022/7/24,23:00,8,7
�����w�O,�w����,2022/7/25,0:00,5,0
�����w�O,�w����,2022/7/25,1:00,0,0
�����w�O,�w����,2022/7/25,2:00,0,0
�����w�O,�w����,2022/7/25,3:00,0,0
�����w�O,�w����,2022/7/25,4:00,0,0
�����w�O,�w����,2022/7/25,5:00,7,4
�����w�O,�w����,2022/7/25,6:00,82,55
�����w�O,�w����,2022/7/25,7:00,169,158
�����w�O,�w����,2022/7/25,8:00,121,208
�����w�O,�w����,2022/7/25,9:00,107,109
�����w�O,�w����,2022/7/25,10:00,117,123
�����w�O,�w����,2022/7/25,11:00,117,138
�����w�O,�w����,2022/7/25,12:00,182,149
�����w�O,�w����,2022/7/25,13:00,171,166
�����w�O,�w����,2022/7/25,14:00,156,189
�����w�O,�w����,2022/7/25,15:00,152,114
�����w�O,�w����,2022/7/25,16:00,180,133
�����w�O,�w����,2022/7/25,17:00,263,139
�����w�O,�w����,2022/7/25,18:00,216,145
�����w�O,�w����,2022/7/25,19:00,95,98
�����w�O,�w����,2022/7/25,20:00,65,65
�����w�O,�w����,2022/7/25,21:00,66,53
�����w�O,�w����,2022/7/25,22:00,17,38
�����w�O,�w����,2022/7/25,23:00,7,13
�����w�O,�w����,2022/7/26,0:00,2,1
�����w�O,�w����,2022/7/26,1:00,0,0
�����w�O,�w����,2022/7/26,2:00,0,0
�����w�O,�w����,2022/7/26,3:00,0,1
�����w�O,�w����,2022/7/26,4:00,2,1
�����w�O,�w����,2022/7/26,5:00,15,16
�����w�O,�w����,2022/7/26,6:00,81,46
�����w�O,�w����,2022/7/26,7:00,151,209
�����w�O,�w����,2022/7/26,8:00,117,170
�����w�O,�w����,2022/7/26,9:00,135,136
�����w�O,�w����,2022/7/26,10:00,105,111
�����w�O,�w����,2022/7/26,11:00,117,150
�����w�O,�w����,2022/7/26,12:00,144,128
�����w�O,�w����,2022/7/26,13:00,164,120
�����w�O,�w����,2022/7/26,14:00,151,174
�����w�O,�w����,2022/7/26,15:00,170,112
�����w�O,�w����,2022/7/26,16:00,206,128
�����w�O,�w����,2022/7/26,17:00,255,132